Year,Month,Day,Hour,Minute,Value (Times are PST for windspeed in km/hr)
2010,05,04,00,00,10.20
2010,05,04,00,01,10.90
2010,05,04,00,02,8.90
2010,05,04,00,03,12.40
2010,05,04,00,04,13.40
2010,05,04,00,05,16.30
2010,05,04,00,06,16.90
2010,05,04,00,07,13.40
2010,05,04,00,08,16.90
2010,05,04,00,09,12.20
2010,05,04,00,10,12.30
2010,05,04,00,11,11.80
2010,05,04,00,12,10.40
2010,05,04,00,13,7.50
2010,05,04,00,14,13.40
2010,05,04,00,15,12.70
2010,05,04,00,16,8.80
2010,05,04,00,17,5.80
2010,05,04,00,18,7.00
2010,05,04,00,19,4.20
2010,05,04,00,20,2.60
2010,05,04,00,21,4.10
2010,05,04,00,22,7.80
2010,05,04,00,23,5.80
2010,05,04,00,24,7.70
2010,05,04,00,25,5.10
2010,05,04,00,26,8.70
2010,05,04,00,27,10.50
2010,05,04,00,28,9.40
2010,05,04,00,29,8.60
2010,05,04,00,30,6.00
2010,05,04,00,31,10.70
2010,05,04,00,32,10.60
2010,05,04,00,33,4.80
2010,05,04,00,34,7.50
2010,05,04,00,35,13.40
2010,05,04,00,36,11.20
2010,05,04,00,37,13.60
2010,05,04,00,38,8.10
2010,05,04,00,39,6.00
2010,05,04,00,40,7.40
2010,05,04,00,41,8.60
2010,05,04,00,42,8.70
2010,05,04,00,43,12.30
2010,05,04,00,44,12.70
2010,05,04,00,45,7.90
2010,05,04,00,46,12.50
2010,05,04,00,47,8.20
2010,05,04,00,48,11.70
2010,05,04,00,49,12.10
2010,05,04,00,50,9.00
2010,05,04,00,51,7.30
2010,05,04,00,52,4.50
2010,05,04,00,53,9.40
2010,05,04,00,54,8.70
2010,05,04,00,55,8.50
2010,05,04,00,56,9.10
2010,05,04,00,57,10.70
2010,05,04,00,58,8.10
2010,05,04,00,59,8.40
2010,05,04,01,00,3.50
2010,05,04,01,01,4.40
2010,05,04,01,02,6.30
2010,05,04,01,03,3.90
2010,05,04,01,04,6.80
2010,05,04,01,05,5.70
2010,05,04,01,06,12.40
2010,05,04,01,07,8.90
2010,05,04,01,08,7.90
2010,05,04,01,09,7.50
2010,05,04,01,10,6.80
2010,05,04,01,11,9.20
2010,05,04,01,12,7.40
2010,05,04,01,13,10.40
2010,05,04,01,14,12.50
2010,05,04,01,15,6.60
2010,05,04,01,16,6.00
2010,05,04,01,17,6.00
2010,05,04,01,18,9.00
2010,05,04,01,19,6.10
2010,05,04,01,20,3.90
2010,05,04,01,21,7.80
2010,05,04,01,22,8.60
2010,05,04,01,23,4.40
2010,05,04,01,24,2.50
2010,05,04,01,25,4.10
2010,05,04,01,26,8.90
2010,05,04,01,27,7.50
2010,05,04,01,28,4.30
2010,05,04,01,29,8.50
2010,05,04,01,30,4.60
2010,05,04,01,31,2.30
2010,05,04,01,32,2.00
2010,05,04,01,33,1.70
2010,05,04,01,34,2.00
2010,05,04,01,35,2.80
2010,05,04,01,36,3.10
2010,05,04,01,37,3.20
2010,05,04,01,38,4.50
2010,05,04,01,39,5.30
2010,05,04,01,40,2.90
2010,05,04,01,41,1.40
2010,05,04,01,42,0.10
2010,05,04,01,43,3.70
2010,05,04,01,44,3.60
2010,05,04,01,45,6.30
2010,05,04,01,46,5.80
2010,05,04,01,47,3.80
2010,05,04,01,48,1.80
2010,05,04,01,49,0.30
2010,05,04,01,50,3.60
2010,05,04,01,51,2.00
2010,05,04,01,52,4.20
2010,05,04,01,53,1.90
2010,05,04,01,54,1.50
2010,05,04,01,55,3.30
2010,05,04,01,56,5.10
2010,05,04,01,57,3.20
2010,05,04,01,58,3.60
2010,05,04,01,59,2.70
2010,05,04,02,00,3.10
2010,05,04,02,01,5.90
2010,05,04,02,02,6.40
2010,05,04,02,03,5.00
2010,05,04,02,04,3.50
2010,05,04,02,05,4.60
2010,05,04,02,06,7.10
2010,05,04,02,07,6.80
2010,05,04,02,08,2.90
2010,05,04,02,09,2.40
2010,05,04,02,10,3.10
2010,05,04,02,11,4.10
2010,05,04,02,12,4.40
2010,05,04,02,13,2.20
2010,05,04,02,14,3.70
2010,05,04,02,15,3.20
2010,05,04,02,16,9.40
2010,05,04,02,17,8.10
2010,05,04,02,18,7.10
2010,05,04,02,19,5.20
2010,05,04,02,20,4.60
2010,05,04,02,21,5.20
2010,05,04,02,22,6.10
2010,05,04,02,23,7.10
2010,05,04,02,24,7.70
2010,05,04,02,25,5.40
2010,05,04,02,26,11.10
2010,05,04,02,27,10.90
2010,05,04,02,28,7.50
2010,05,04,02,29,5.50
2010,05,04,02,30,2.60
2010,05,04,02,31,2.60
2010,05,04,02,32,2.70
2010,05,04,02,33,4.50
2010,05,04,02,34,2.70
2010,05,04,02,35,5.00
2010,05,04,02,36,4.30
2010,05,04,02,37,4.70
2010,05,04,02,38,3.50
2010,05,04,02,39,5.50
2010,05,04,02,40,5.40
2010,05,04,02,41,5.70
2010,05,04,02,42,3.20
2010,05,04,02,43,7.50
2010,05,04,02,44,2.80
2010,05,04,02,45,5.00
2010,05,04,02,46,5.50
2010,05,04,02,47,4.40
2010,05,04,02,48,7.70
2010,05,04,02,49,6.90
2010,05,04,02,50,3.10
2010,05,04,02,51,6.50
2010,05,04,02,52,9.70
2010,05,04,02,53,5.90
2010,05,04,02,54,5.70
2010,05,04,02,55,2.80
2010,05,04,02,56,4.40
2010,05,04,02,57,7.10
2010,05,04,02,58,6.70
2010,05,04,02,59,8.00
2010,05,04,03,00,8.20
2010,05,04,03,01,8.50
2010,05,04,03,02,5.90
2010,05,04,03,03,8.00
2010,05,04,03,04,6.30
2010,05,04,03,05,4.70
2010,05,04,03,06,7.40
2010,05,04,03,07,6.00
2010,05,04,03,08,1.20
2010,05,04,03,09,5.90
2010,05,04,03,10,6.40
2010,05,04,03,11,4.50
2010,05,04,03,12,3.90
2010,05,04,03,13,3.30
2010,05,04,03,14,5.00
2010,05,04,03,15,4.50
2010,05,04,03,16,3.10
2010,05,04,03,17,8.90
2010,05,04,03,18,5.00
2010,05,04,03,19,3.90
2010,05,04,03,20,5.70
2010,05,04,03,21,5.00
2010,05,04,03,22,4.20
2010,05,04,03,23,4.10
2010,05,04,03,24,7.70
2010,05,04,03,25,6.00
2010,05,04,03,26,4.60
2010,05,04,03,27,6.10
2010,05,04,03,28,3.80
2010,05,04,03,29,6.40
2010,05,04,03,30,8.10
2010,05,04,03,31,6.00
2010,05,04,03,32,2.30
2010,05,04,03,33,8.50
2010,05,04,03,34,11.30
2010,05,04,03,35,8.90
2010,05,04,03,36,4.90
2010,05,04,03,37,6.10
2010,05,04,03,38,9.70
2010,05,04,03,39,6.00
2010,05,04,03,40,5.30
2010,05,04,03,41,7.60
2010,05,04,03,42,5.40
2010,05,04,03,43,8.50
2010,05,04,03,44,6.40
2010,05,04,03,45,1.40
2010,05,04,03,46,1.70
2010,05,04,03,47,4.00
2010,05,04,03,48,4.30
2010,05,04,03,49,5.60
2010,05,04,03,50,5.20
2010,05,04,03,51,3.50
2010,05,04,03,52,4.00
2010,05,04,03,53,4.00
2010,05,04,03,54,8.00
2010,05,04,03,55,4.90
2010,05,04,03,56,1.50
2010,05,04,03,57,4.00
2010,05,04,03,58,6.30
2010,05,04,03,59,8.00
2010,05,04,04,00,7.00
2010,05,04,04,01,5.80
2010,05,04,04,02,5.10
2010,05,04,04,03,6.90
2010,05,04,04,04,2.90
2010,05,04,04,05,4.20
2010,05,04,04,06,5.60
2010,05,04,04,07,3.50
2010,05,04,04,08,9.60
2010,05,04,04,09,8.60
2010,05,04,04,10,3.40
2010,05,04,04,11,6.70
2010,05,04,04,12,2.90
2010,05,04,04,13,3.20
2010,05,04,04,14,4.70
2010,05,04,04,15,3.60
2010,05,04,04,16,9.40
2010,05,04,04,17,5.70
2010,05,04,04,18,4.40
2010,05,04,04,19,3.40
2010,05,04,04,20,8.90
2010,05,04,04,21,6.80
2010,05,04,04,22,2.40
2010,05,04,04,23,2.10
2010,05,04,04,24,4.30
2010,05,04,04,25,6.80
2010,05,04,04,26,4.00
2010,05,04,04,27,7.90
2010,05,04,04,28,5.10
2010,05,04,04,29,7.40
2010,05,04,04,30,4.30
2010,05,04,04,31,3.50
2010,05,04,04,32,5.60
2010,05,04,04,33,7.50
2010,05,04,04,34,6.40
2010,05,04,04,35,5.10
2010,05,04,04,36,4.90
2010,05,04,04,37,5.70
2010,05,04,04,38,6.70
2010,05,04,04,39,6.70
2010,05,04,04,40,6.30
2010,05,04,04,41,3.10
2010,05,04,04,42,6.30
2010,05,04,04,43,3.20
2010,05,04,04,44,5.30
2010,05,04,04,45,7.20
2010,05,04,04,46,6.40
2010,05,04,04,47,8.20
2010,05,04,04,48,5.80
2010,05,04,04,49,2.60
2010,05,04,04,50,5.70
2010,05,04,04,51,4.80
2010,05,04,04,52,7.60
2010,05,04,04,53,4.80
2010,05,04,04,54,2.60
2010,05,04,04,55,4.00
2010,05,04,04,56,2.70
2010,05,04,04,57,3.50
2010,05,04,04,58,5.00
2010,05,04,04,59,2.50
2010,05,04,05,00,6.80
2010,05,04,05,01,3.00
2010,05,04,05,02,4.70
2010,05,04,05,03,5.70
2010,05,04,05,04,3.00
2010,05,04,05,05,2.30
2010,05,04,05,06,2.00
2010,05,04,05,07,8.50
2010,05,04,05,08,5.70
2010,05,04,05,09,1.90
2010,05,04,05,10,5.80
2010,05,04,05,11,4.30
2010,05,04,05,12,1.90
2010,05,04,05,13,4.40
2010,05,04,05,14,4.10
2010,05,04,05,15,0.10
2010,05,04,05,16,0.10
2010,05,04,05,17,1.20
2010,05,04,05,18,3.20
2010,05,04,05,19,1.30
2010,05,04,05,20,0.50
2010,05,04,05,21,0.10
2010,05,04,05,22,3.10
2010,05,04,05,23,4.40
2010,05,04,05,24,3.30
2010,05,04,05,25,2.70
2010,05,04,05,26,1.80
2010,05,04,05,27,3.50
2010,05,04,05,28,2.90
2010,05,04,05,29,3.60
2010,05,04,05,30,2.10
2010,05,04,05,31,3.70
2010,05,04,05,32,3.70
2010,05,04,05,33,2.50
2010,05,04,05,34,0.80
2010,05,04,05,35,3.60
2010,05,04,05,36,3.10
2010,05,04,05,37,3.10
2010,05,04,05,38,4.20
2010,05,04,05,39,0.90
2010,05,04,05,40,2.00
2010,05,04,05,41,3.00
2010,05,04,05,42,5.20
2010,05,04,05,43,5.20
2010,05,04,05,44,1.70
2010,05,04,05,45,1.30
2010,05,04,05,46,2.90
2010,05,04,05,47,1.00
2010,05,04,05,48,0.80
2010,05,04,05,49,1.30
2010,05,04,05,50,0.70
2010,05,04,05,51,0.10
2010,05,04,05,52,1.70
2010,05,04,05,53,0.90
2010,05,04,05,54,2.80
2010,05,04,05,55,0.80
2010,05,04,05,56,4.40
2010,05,04,05,57,2.20
2010,05,04,05,58,3.60
2010,05,04,05,59,4.70
2010,05,04,06,00,4.90
2010,05,04,06,01,2.20
2010,05,04,06,02,6.20
2010,05,04,06,03,7.10
2010,05,04,06,04,7.40
2010,05,04,06,05,8.80
2010,05,04,06,06,8.50
2010,05,04,06,07,8.80
2010,05,04,06,08,7.00
2010,05,04,06,09,9.40
2010,05,04,06,10,8.10
2010,05,04,06,11,12.30
2010,05,04,06,12,6.60
2010,05,04,06,13,7.50
2010,05,04,06,14,8.10
2010,05,04,06,15,5.80
2010,05,04,06,16,6.80
2010,05,04,06,17,4.30
2010,05,04,06,18,1.80
2010,05,04,06,19,4.30
2010,05,04,06,20,5.60
2010,05,04,06,21,9.70
2010,05,04,06,22,8.40
2010,05,04,06,23,2.20
2010,05,04,06,24,3.00
2010,05,04,06,25,4.70
2010,05,04,06,26,4.70
2010,05,04,06,27,1.30
2010,05,04,06,28,1.90
2010,05,04,06,29,2.20
2010,05,04,06,30,0.90
2010,05,04,06,31,4.70
2010,05,04,06,32,4.20
2010,05,04,06,33,4.80
2010,05,04,06,34,4.70
2010,05,04,06,35,8.50
2010,05,04,06,36,9.90
2010,05,04,06,37,4.50
2010,05,04,06,38,6.00
2010,05,04,06,39,7.40
2010,05,04,06,40,5.60
2010,05,04,06,41,5.90
2010,05,04,06,42,3.60
2010,05,04,06,43,6.40
2010,05,04,06,44,5.10
2010,05,04,06,45,1.80
2010,05,04,06,46,6.20
2010,05,04,06,47,1.80
2010,05,04,06,48,2.80
2010,05,04,06,49,3.40
2010,05,04,06,50,0.50
2010,05,04,06,51,0.20
2010,05,04,06,52,1.50
2010,05,04,06,53,3.70
2010,05,04,06,54,3.70
2010,05,04,06,55,3.50
2010,05,04,06,56,2.00
2010,05,04,06,57,2.90
2010,05,04,06,58,3.10
2010,05,04,06,59,6.90
2010,05,04,07,00,3.90
2010,05,04,07,01,2.40
2010,05,04,07,02,7.80
2010,05,04,07,03,4.70
2010,05,04,07,04,5.10
2010,05,04,07,05,7.90
2010,05,04,07,06,4.90
2010,05,04,07,07,5.20
2010,05,04,07,08,3.00
2010,05,04,07,09,1.00
2010,05,04,07,10,0.00
2010,05,04,07,11,3.60
2010,05,04,07,12,5.80
2010,05,04,07,13,3.60
2010,05,04,07,14,3.30
2010,05,04,07,15,3.00
2010,05,04,07,16,4.90
2010,05,04,07,17,4.20
2010,05,04,07,18,4.00
2010,05,04,07,19,3.60
2010,05,04,07,20,6.80
2010,05,04,07,21,9.40
2010,05,04,07,22,9.50
2010,05,04,07,23,8.20
2010,05,04,07,24,6.40
2010,05,04,07,25,7.90
2010,05,04,07,26,7.90
2010,05,04,07,27,4.00
2010,05,04,07,28,6.20
2010,05,04,07,29,6.60
2010,05,04,07,30,5.20
2010,05,04,07,31,9.70
2010,05,04,07,32,6.30
2010,05,04,07,33,3.60
2010,05,04,07,34,3.00
2010,05,04,07,35,6.80
2010,05,04,07,36,10.00
2010,05,04,07,37,9.70
2010,05,04,07,38,8.90
2010,05,04,07,39,5.00
2010,05,04,07,40,3.10
2010,05,04,07,41,4.30
2010,05,04,07,42,6.10
2010,05,04,07,43,6.00
2010,05,04,07,44,6.00
2010,05,04,07,45,5.80
2010,05,04,07,46,12.20
2010,05,04,07,47,14.60
2010,05,04,07,48,13.80
2010,05,04,07,49,6.80
2010,05,04,07,50,6.40
2010,05,04,07,51,4.60
2010,05,04,07,52,12.80
2010,05,04,07,53,19.30
2010,05,04,07,54,7.80
2010,05,04,07,55,12.70
2010,05,04,07,56,14.90
2010,05,04,07,57,6.90
2010,05,04,07,58,5.50
2010,05,04,07,59,6.10
2010,05,04,08,00,5.20
2010,05,04,08,01,0.90
2010,05,04,08,02,6.20
2010,05,04,08,03,5.30
2010,05,04,08,04,5.80
2010,05,04,08,05,8.00
2010,05,04,08,06,14.70
2010,05,04,08,07,11.10
2010,05,04,08,08,9.60
2010,05,04,08,09,11.50
2010,05,04,08,10,10.00
2010,05,04,08,11,6.30
2010,05,04,08,12,11.00
2010,05,04,08,13,8.50
2010,05,04,08,14,4.00
2010,05,04,08,15,4.70
2010,05,04,08,16,8.70
2010,05,04,08,17,6.10
2010,05,04,08,18,12.50
2010,05,04,08,19,12.70
2010,05,04,08,20,5.60
2010,05,04,08,21,6.70
2010,05,04,08,22,8.20
2010,05,04,08,23,13.80
2010,05,04,08,24,10.80
2010,05,04,08,25,6.00
2010,05,04,08,26,4.90
2010,05,04,08,27,3.90
2010,05,04,08,28,6.90
2010,05,04,08,29,8.40
2010,05,04,08,30,12.10
2010,05,04,08,31,12.10
2010,05,04,08,32,13.40
2010,05,04,08,33,12.50
2010,05,04,08,34,10.90
2010,05,04,08,35,7.80
2010,05,04,08,36,8.10
2010,05,04,08,37,5.40
2010,05,04,08,38,7.30
2010,05,04,08,39,6.30
2010,05,04,08,40,13.60
2010,05,04,08,41,11.40
2010,05,04,08,42,12.00
2010,05,04,08,43,12.40
2010,05,04,08,44,13.10
2010,05,04,08,45,9.80
2010,05,04,08,46,10.80
2010,05,04,08,47,9.90
2010,05,04,08,48,12.40
2010,05,04,08,49,13.40
2010,05,04,08,50,10.40
2010,05,04,08,51,8.90
2010,05,04,08,52,8.90
2010,05,04,08,53,7.00
2010,05,04,08,54,13.80
2010,05,04,08,55,10.30
2010,05,04,08,56,12.00
2010,05,04,08,57,10.80
2010,05,04,08,58,6.70
2010,05,04,08,59,6.40
2010,05,04,09,00,10.20
2010,05,04,09,01,12.50
2010,05,04,09,02,8.20
2010,05,04,09,03,9.90
2010,05,04,09,04,10.30
2010,05,04,09,05,10.30
2010,05,04,09,06,8.70
2010,05,04,09,07,7.70
2010,05,04,09,08,4.40
2010,05,04,09,09,3.90
2010,05,04,09,10,8.40
2010,05,04,09,11,9.40
2010,05,04,09,12,13.50
2010,05,04,09,13,9.10
2010,05,04,09,14,12.20
2010,05,04,09,15,11.20
2010,05,04,09,16,13.60
2010,05,04,09,17,14.60
2010,05,04,09,18,10.30
2010,05,04,09,19,7.90
2010,05,04,09,20,9.70
2010,05,04,09,21,12.70
2010,05,04,09,22,15.70
2010,05,04,09,23,13.50
2010,05,04,09,24,11.80
2010,05,04,09,25,17.20
2010,05,04,09,26,16.80
2010,05,04,09,27,16.60
2010,05,04,09,28,15.20
2010,05,04,09,29,11.20
2010,05,04,09,30,11.40
2010,05,04,09,31,9.60
2010,05,04,09,32,11.10
2010,05,04,09,33,10.80
2010,05,04,09,34,9.10
2010,05,04,09,35,12.90
2010,05,04,09,36,16.40
2010,05,04,09,37,22.00
2010,05,04,09,38,15.90
2010,05,04,09,39,17.80
2010,05,04,09,40,13.70
2010,05,04,09,41,13.30
2010,05,04,09,42,18.30
2010,05,04,09,43,15.50
2010,05,04,09,44,13.40
2010,05,04,09,45,16.30
2010,05,04,09,46,8.80
2010,05,04,09,47,13.30
2010,05,04,09,48,10.30
2010,05,04,09,49,6.80
2010,05,04,09,50,10.00
2010,05,04,09,51,14.20
2010,05,04,09,52,11.70
2010,05,04,09,53,12.40
2010,05,04,09,54,15.70
2010,05,04,09,55,16.00
2010,05,04,09,56,17.00
2010,05,04,09,57,8.90
2010,05,04,09,58,10.90
2010,05,04,09,59,16.00
2010,05,04,10,00,16.30
2010,05,04,10,01,11.90
2010,05,04,10,02,13.40
2010,05,04,10,03,9.30
2010,05,04,10,04,13.30
2010,05,04,10,05,7.50
2010,05,04,10,06,13.60
2010,05,04,10,07,9.30
2010,05,04,10,08,20.20
2010,05,04,10,09,15.50
2010,05,04,10,10,12.20
2010,05,04,10,11,10.70
2010,05,04,10,12,9.00
2010,05,04,10,13,14.80
2010,05,04,10,14,10.70
2010,05,04,10,15,7.50
2010,05,04,10,16,5.80
2010,05,04,10,17,8.30
2010,05,04,10,18,10.90
2010,05,04,10,19,16.00
2010,05,04,10,20,15.50
2010,05,04,10,21,15.40
2010,05,04,10,22,7.10
2010,05,04,10,23,12.90
2010,05,04,10,24,16.30
2010,05,04,10,25,14.50
2010,05,04,10,26,13.00
2010,05,04,10,27,17.10
2010,05,04,10,28,11.30
2010,05,04,10,29,12.30
2010,05,04,10,30,13.00
2010,05,04,10,31,10.90
2010,05,04,10,32,13.70
2010,05,04,10,33,12.80
2010,05,04,10,34,14.30
2010,05,04,10,35,12.70
2010,05,04,10,36,13.90
2010,05,04,10,37,14.30
2010,05,04,10,38,12.20
2010,05,04,10,39,12.70
2010,05,04,10,40,11.40
2010,05,04,10,41,8.00
2010,05,04,10,42,9.40
2010,05,04,10,43,11.80
2010,05,04,10,44,10.30
2010,05,04,10,45,18.00
2010,05,04,10,46,15.90
2010,05,04,10,47,17.50
2010,05,04,10,48,12.10
2010,05,04,10,49,8.00
2010,05,04,10,50,15.00
2010,05,04,10,51,4.40
2010,05,04,10,52,10.70
2010,05,04,10,53,4.80
2010,05,04,10,54,11.50
2010,05,04,10,55,14.10
2010,05,04,10,56,12.00
2010,05,04,10,57,16.10
2010,05,04,10,58,14.70
2010,05,04,10,59,11.20
2010,05,04,11,00,14.20
2010,05,04,11,01,14.40
2010,05,04,11,02,13.50
2010,05,04,11,03,12.40
2010,05,04,11,04,17.10
2010,05,04,11,05,14.00
2010,05,04,11,06,10.40
2010,05,04,11,07,16.00
2010,05,04,11,08,19.60
2010,05,04,11,09,15.80
2010,05,04,11,10,14.60
2010,05,04,11,11,12.90
2010,05,04,11,12,16.50
2010,05,04,11,13,9.30
2010,05,04,11,14,10.60
2010,05,04,11,15,17.10
2010,05,04,11,16,12.10
2010,05,04,11,17,11.40
2010,05,04,11,18,11.30
2010,05,04,11,19,9.10
2010,05,04,11,20,11.00
2010,05,04,11,21,12.90
2010,05,04,11,22,16.30
2010,05,04,11,23,8.00
2010,05,04,11,24,13.90
2010,05,04,11,25,9.70
2010,05,04,11,26,8.50
2010,05,04,11,27,20.40
2010,05,04,11,28,8.60
2010,05,04,11,29,11.30
2010,05,04,11,30,13.60
2010,05,04,11,31,15.80
2010,05,04,11,32,13.20
2010,05,04,11,33,14.20
2010,05,04,11,34,8.40
2010,05,04,11,35,10.00
2010,05,04,11,36,14.80
2010,05,04,11,37,13.90
2010,05,04,11,38,14.30
2010,05,04,11,39,17.70
2010,05,04,11,40,14.90
2010,05,04,11,41,13.50
2010,05,04,11,42,15.80
2010,05,04,11,43,17.10
2010,05,04,11,44,10.50
2010,05,04,11,45,14.70
2010,05,04,11,46,19.40
2010,05,04,11,47,17.50
2010,05,04,11,48,10.80
2010,05,04,11,49,7.60
2010,05,04,11,50,13.60
2010,05,04,11,51,14.60
2010,05,04,11,52,11.40
2010,05,04,11,53,12.40
2010,05,04,11,54,11.90
2010,05,04,11,55,14.60
2010,05,04,11,56,15.80
2010,05,04,11,57,17.00
2010,05,04,11,58,14.30
2010,05,04,11,59,15.50
2010,05,04,12,00,11.70
2010,05,04,12,01,14.30
2010,05,04,12,02,16.00
2010,05,04,12,03,13.60
2010,05,04,12,04,10.60
2010,05,04,12,05,9.20
2010,05,04,12,06,13.60
2010,05,04,12,07,19.40
2010,05,04,12,08,13.10
2010,05,04,12,09,14.60
2010,05,04,12,10,9.70
2010,05,04,12,11,9.70
2010,05,04,12,12,15.20
2010,05,04,12,13,16.20
2010,05,04,12,14,13.80
2010,05,04,12,15,15.20
2010,05,04,12,16,16.70
2010,05,04,12,17,16.90
2010,05,04,12,18,15.90
2010,05,04,12,19,12.50
2010,05,04,12,20,13.00
2010,05,04,12,21,14.70
2010,05,04,12,22,9.80
2010,05,04,12,23,13.70
2010,05,04,12,24,15.50
2010,05,04,12,25,10.40
2010,05,04,12,26,9.90
2010,05,04,12,27,6.70
2010,05,04,12,28,19.60
2010,05,04,12,29,12.60
2010,05,04,12,30,14.70
2010,05,04,12,31,10.10
2010,05,04,12,32,12.20
2010,05,04,12,33,9.80
2010,05,04,12,34,12.40
2010,05,04,12,35,9.70
2010,05,04,12,36,16.80
2010,05,04,12,37,16.40
2010,05,04,12,38,9.90
2010,05,04,12,39,16.90
2010,05,04,12,40,11.90
2010,05,04,12,41,11.80
2010,05,04,12,42,8.20
2010,05,04,12,43,12.10
2010,05,04,12,44,14.90
2010,05,04,12,45,16.00
2010,05,04,12,46,15.70
2010,05,04,12,47,16.60
2010,05,04,12,48,8.10
2010,05,04,12,49,4.90
2010,05,04,12,50,7.90
2010,05,04,12,51,12.40
2010,05,04,12,52,11.70
2010,05,04,12,53,9.70
2010,05,04,12,54,2.90
2010,05,04,12,55,4.90
2010,05,04,12,56,2.30
2010,05,04,12,57,6.70
2010,05,04,12,58,5.80
2010,05,04,12,59,9.80
2010,05,04,13,00,5.30
2010,05,04,13,01,6.40
2010,05,04,13,02,5.60
2010,05,04,13,03,4.30
2010,05,04,13,04,1.40
2010,05,04,13,05,8.60
2010,05,04,13,06,2.60
2010,05,04,13,07,8.90
2010,05,04,13,08,9.60
2010,05,04,13,09,6.80
2010,05,04,13,10,3.30
2010,05,04,13,11,5.10
2010,05,04,13,12,3.70
2010,05,04,13,13,1.70
2010,05,04,13,14,2.90
2010,05,04,13,15,3.60
2010,05,04,13,16,1.90
2010,05,04,13,17,5.10
2010,05,04,13,18,5.00
2010,05,04,13,19,9.00
2010,05,04,13,20,5.90
2010,05,04,13,21,6.10
2010,05,04,13,22,6.40
2010,05,04,13,23,10.80
2010,05,04,13,24,7.60
2010,05,04,13,25,8.00
2010,05,04,13,26,3.50
2010,05,04,13,27,6.90
2010,05,04,13,28,11.50
2010,05,04,13,29,11.10
2010,05,04,13,30,7.00
2010,05,04,13,31,12.00
2010,05,04,13,32,10.10
2010,05,04,13,33,8.80
2010,05,04,13,34,9.10
2010,05,04,13,35,8.60
2010,05,04,13,36,3.70
2010,05,04,13,37,6.60
2010,05,04,13,38,7.10
2010,05,04,13,39,4.00
2010,05,04,13,40,3.10
2010,05,04,13,41,9.00
2010,05,04,13,42,12.40
2010,05,04,13,43,11.50
2010,05,04,13,44,7.80
2010,05,04,13,45,11.60
2010,05,04,13,46,7.00
2010,05,04,13,47,7.80
2010,05,04,13,48,6.70
2010,05,04,13,49,14.60
2010,05,04,13,50,10.40
2010,05,04,13,51,4.50
2010,05,04,13,52,15.80
2010,05,04,13,53,9.50
2010,05,04,13,54,10.30
2010,05,04,13,55,11.70
2010,05,04,13,56,7.90
2010,05,04,13,57,7.90
2010,05,04,13,58,8.70
2010,05,04,13,59,11.70
2010,05,04,14,00,5.50
2010,05,04,14,01,11.70
2010,05,04,14,02,9.60
2010,05,04,14,03,8.50
2010,05,04,14,04,13.50
2010,05,04,14,05,9.20
2010,05,04,14,06,4.20
2010,05,04,14,07,6.60
2010,05,04,14,08,8.70
2010,05,04,14,09,12.30
2010,05,04,14,10,8.80
2010,05,04,14,11,7.10
2010,05,04,14,12,7.90
2010,05,04,14,13,10.40
2010,05,04,14,14,11.00
2010,05,04,14,15,11.80
2010,05,04,14,16,10.00
2010,05,04,14,17,10.10
2010,05,04,14,18,10.80
2010,05,04,14,19,10.10
2010,05,04,14,20,7.10
2010,05,04,14,21,13.00
2010,05,04,14,22,12.70
2010,05,04,14,23,13.20
2010,05,04,14,24,16.90
2010,05,04,14,25,12.30
2010,05,04,14,26,8.90
2010,05,04,14,27,10.30
2010,05,04,14,28,12.00
2010,05,04,14,29,11.50
2010,05,04,14,30,8.80
2010,05,04,14,31,7.50
2010,05,04,14,32,6.90
2010,05,04,14,33,5.60
2010,05,04,14,34,7.20
2010,05,04,14,35,6.40
2010,05,04,14,36,4.10
2010,05,04,14,37,10.80
2010,05,04,14,38,11.20
2010,05,04,14,39,16.70
2010,05,04,14,40,12.50
2010,05,04,14,41,13.60
2010,05,04,14,42,10.70
2010,05,04,14,43,6.90
2010,05,04,14,44,6.70
2010,05,04,14,45,7.50
2010,05,04,14,46,10.10
2010,05,04,14,47,12.20
2010,05,04,14,48,15.50
2010,05,04,14,49,14.50
2010,05,04,14,50,17.00
2010,05,04,14,51,13.60
2010,05,04,14,52,8.10
2010,05,04,14,53,8.50
2010,05,04,14,54,12.20
2010,05,04,14,55,16.50
2010,05,04,14,56,10.90
2010,05,04,14,57,13.30
2010,05,04,14,58,10.40
2010,05,04,14,59,12.80
2010,05,04,15,00,13.60
2010,05,04,15,01,12.90
2010,05,04,15,02,11.90
2010,05,04,15,03,11.30
2010,05,04,15,04,14.70
2010,05,04,15,05,13.30
2010,05,04,15,06,12.10
2010,05,04,15,07,12.90
2010,05,04,15,08,7.70
2010,05,04,15,09,8.60
2010,05,04,15,10,12.90
2010,05,04,15,11,8.20
2010,05,04,15,12,7.20
2010,05,04,15,13,6.20
2010,05,04,15,14,11.20
2010,05,04,15,15,15.80
2010,05,04,15,16,10.90
2010,05,04,15,17,12.90
2010,05,04,15,18,17.50
2010,05,04,15,19,18.20
2010,05,04,15,20,13.70
2010,05,04,15,21,10.30
2010,05,04,15,22,12.30
2010,05,04,15,23,13.90
2010,05,04,15,24,6.90
2010,05,04,15,25,15.80
2010,05,04,15,26,19.10
2010,05,04,15,27,11.20
2010,05,04,15,28,15.20
2010,05,04,15,29,15.00
2010,05,04,15,30,8.00
2010,05,04,15,31,19.20
2010,05,04,15,32,15.00
2010,05,04,15,33,16.70
2010,05,04,15,34,17.20
2010,05,04,15,35,14.10
2010,05,04,15,36,12.50
2010,05,04,15,37,15.50
2010,05,04,15,38,17.00
2010,05,04,15,39,18.30
2010,05,04,15,40,18.00
2010,05,04,15,41,16.70
2010,05,04,15,42,13.50
2010,05,04,15,43,15.60
2010,05,04,15,44,16.30
2010,05,04,15,45,9.50
2010,05,04,15,46,15.90
2010,05,04,15,47,17.90
2010,05,04,15,48,14.90
2010,05,04,15,49,15.30
2010,05,04,15,50,14.70
2010,05,04,15,51,16.50
2010,05,04,15,52,14.10
2010,05,04,15,53,14.70
2010,05,04,15,54,9.20
2010,05,04,15,55,11.90
2010,05,04,15,56,16.70
2010,05,04,15,57,8.80
2010,05,04,15,58,12.70
2010,05,04,15,59,11.70
2010,05,04,16,00,8.10
2010,05,04,16,01,11.30
2010,05,04,16,02,10.80
2010,05,04,16,03,13.90
2010,05,04,16,04,11.10
2010,05,04,16,05,12.60
2010,05,04,16,06,11.40
2010,05,04,16,07,16.00
2010,05,04,16,08,11.70
2010,05,04,16,09,6.10
2010,05,04,16,10,6.80
2010,05,04,16,11,8.70
2010,05,04,16,12,7.80
2010,05,04,16,13,10.90
2010,05,04,16,14,13.00
2010,05,04,16,15,13.90
2010,05,04,16,16,10.70
2010,05,04,16,17,11.30
2010,05,04,16,18,12.00
2010,05,04,16,19,10.60
2010,05,04,16,20,9.30
2010,05,04,16,21,6.40
2010,05,04,16,22,7.60
2010,05,04,16,23,9.80
2010,05,04,16,24,6.40
2010,05,04,16,25,10.40
2010,05,04,16,26,9.70
2010,05,04,16,27,12.90
2010,05,04,16,28,10.40
2010,05,04,16,29,5.80
2010,05,04,16,30,9.50
2010,05,04,16,31,7.20
2010,05,04,16,32,4.90
2010,05,04,16,33,3.10
2010,05,04,16,34,7.60
2010,05,04,16,35,9.40
2010,05,04,16,36,4.90
2010,05,04,16,37,5.60
2010,05,04,16,38,8.00
2010,05,04,16,39,8.10
2010,05,04,16,40,4.30
2010,05,04,16,41,6.00
2010,05,04,16,42,5.50
2010,05,04,16,43,5.20
2010,05,04,16,44,9.20
2010,05,04,16,45,12.80
2010,05,04,16,46,13.00
2010,05,04,16,47,8.10
2010,05,04,16,48,10.20
2010,05,04,16,49,9.80
2010,05,04,16,50,9.70
2010,05,04,16,51,6.80
2010,05,04,16,52,14.60
2010,05,04,16,53,13.50
2010,05,04,16,54,3.30
2010,05,04,16,55,1.90
2010,05,04,16,56,3.30
2010,05,04,16,57,7.00
2010,05,04,16,58,9.30
2010,05,04,16,59,11.90
2010,05,04,17,00,6.90
2010,05,04,17,01,7.90
2010,05,04,17,02,10.10
2010,05,04,17,03,9.10
2010,05,04,17,04,6.20
2010,05,04,17,05,8.60
2010,05,04,17,06,4.90
2010,05,04,17,07,6.40
2010,05,04,17,08,5.60
2010,05,04,17,09,9.70
2010,05,04,17,10,13.60
2010,05,04,17,11,9.70
2010,05,04,17,12,3.00
2010,05,04,17,13,10.10
2010,05,04,17,14,8.80
2010,05,04,17,15,11.00
2010,05,04,17,16,7.50
2010,05,04,17,17,7.20
2010,05,04,17,18,8.90
2010,05,04,17,19,0.80
2010,05,04,17,20,4.80
2010,05,04,17,21,1.80
2010,05,04,17,22,0.90
2010,05,04,17,23,4.10
2010,05,04,17,24,7.30
2010,05,04,17,25,5.10
2010,05,04,17,26,8.60
2010,05,04,17,27,5.90
2010,05,04,17,28,6.10
2010,05,04,17,29,8.80
2010,05,04,17,30,8.10
2010,05,04,17,31,4.60
2010,05,04,17,32,7.10
2010,05,04,17,33,10.40
2010,05,04,17,34,7.30
2010,05,04,17,35,6.10
2010,05,04,17,36,5.30
2010,05,04,17,37,6.90
2010,05,04,17,38,8.20
2010,05,04,17,39,9.80
2010,05,04,17,40,7.50
2010,05,04,17,41,9.60
2010,05,04,17,42,8.40
2010,05,04,17,43,5.20
2010,05,04,17,44,1.90
2010,05,04,17,45,1.90
2010,05,04,17,46,5.40
2010,05,04,17,47,10.00
2010,05,04,17,48,7.50
2010,05,04,17,49,3.90